This is the latest recevied weather packets stored in our database for station/object 9D9-WX. If no packets are shown the sender has not sent any weather packets the latest 10 day(s).
| Time | Temp. | Humidity | Pressure | Rain* | Wind** | Luminosity | Snow |
|---|---|---|---|---|---|---|---|
| 1777365913 | 15.56° C | 89% | 974.8 hPa | 0 mm | - | - | - |
| 1777365027 | 15.56° C | 89% | 974.6 hPa | 0 mm | - | - | - |
| 1777364109 | 15° C | 89% | 974.6 hPa | 0 mm | - | - | - |
| 1777363230 | 15° C | 89% | 974.6 hPa | 0 mm | - | - | - |
| 1777362314 | 15.56° C | 84% | 974.9 hPa | 0 mm | - | - | - |
| 1777361427 | 15.56° C | 84% | 974.9 hPa | 0 mm | - | - | - |
| 1777360514 | 15° C | 84% | 974.8 hPa | 0 mm | - | - | - |
| 1777359632 | 15° C | 84% | 974.8 hPa | 0 mm | - | - | - |
| 1777358708 | 15° C | 88% | 974.9 hPa | 0 mm | - | - | - |
| 1777357828 | 15° C | 88% | 974.9 hPa | 0 mm | - | - | - |
| 1777356909 | 15° C | 88% | 974.8 hPa | 0 mm | - | - | - |
| 1777356035 | 15° C | 88% | 974.8 hPa | 0 mm | - | - | - |
| 1777355113 | 15° C | 91% | 975.4 hPa | 0 mm | - | - | - |
| 1777354221 | 15.56° C | 91% | 975.4 hPa | 0 mm | - | - | - |
| 1777353314 | 15.56° C | 91% | 975.4 hPa | 0 mm | - | - | - |
| 1777352429 | 15.56° C | 91% | 975.4 hPa | 0 mm | - | - | - |
| 1777351514 | 15.56° C | 95% | 976.9 hPa | 5.84 mm | - | - | - |
| 1777350626 | 15.56° C | 86% | 976.9 hPa | 5.84 mm | - | - | - |
| 1777349714 | 15° C | 86% | 976.7 hPa | 4.32 mm | - | - | - |
| 1777348834 | 14.44° C | 86% | 976.7 hPa | 4.32 mm | - | - | - |
| 1777347914 | 15° C | 78% | 977.7 hPa | 1.02 mm | - | - | - |
| 1777347026 | 15° C | 81% | 978.1 hPa | 1.02 mm | - | - | - |
| 1777346110 | 16.11° C | 81% | 978.1 hPa | 0 mm | - | - | - |
| 1777345230 | 16.11° C | 81% | 978.1 hPa | 0 mm | - | - | - |
| 1777344309 | 15.56° C | 78% | 976.3 hPa | 0 mm | - | - | - |
* Rain latest hour (hover to see other rain measurements)
** Current wind speed in m/s (hover to see current wind gust speed)